When you browse on this site, cookies collect data to enhance your experience and personalize the content and advertising you see.
Visit our Privacy Policy to learn more. By continuing to use the site, you agree to this use of cookies and data.
  • en Belgique
  • Liste des pays
  • À 7 jours
  • Température de l'eau
  • Carte satellitaire
  • Carte météo
  • Widgets météo
  • user-avatar
    Se connecter

    Météo par heure à Mostar

    Ce jour, 18 Juillet, Jeudi

    Heure Température Précipitation Vent Pression Humidité
    00:00 +21°C° 0 mm 1 m/s 752 mmHg 67%
    01:00 +20°C° 0 mm 2 m/s 752 mmHg 68%
    02:00 +20°C° 0 mm 2 m/s 752 mmHg 69%
    03:00 +19°C° 0 mm 2 m/s 752 mmHg 69%
    04:00 +19°C° 0 mm 2 m/s 751 mmHg 70%
    05:00 +21°C° 0 mm 1 m/s 751 mmHg 67%
    06:00 +23°C° 0 mm 1 m/s 751 mmHg 63%
    07:00 +25°C° 0 mm 1 m/s 752 mmHg 58%
    08:00 +26°C° 0 mm 1 m/s 752 mmHg 54%
    09:00 +28°C° 0 mm 1 m/s 752 mmHg 50%
    10:00 +29°C° 0 mm 1 m/s 752 mmHg 46%
    11:00 +30°C° 0 mm 1 m/s 752 mmHg 45%
    12:00 +30°C° 0 mm 2 m/s 752 mmHg 43%
    13:00 +31°C° 0 mm 2 m/s 752 mmHg 42%
    14:00 +30°C° 0.1 mm 2 m/s 752 mmHg 44%
    15:00 +30°C° 0.1 mm 2 m/s 752 mmHg 46%
    16:00 +30°C° 0.1 mm 2 m/s 752 mmHg 48%
    17:00 +28°C° 0.1 mm 2 m/s 752 mmHg 55%
    18:00 +26°C° 0.1 mm 1 m/s 752 mmHg 62%
    19:00 +22°C° 0.1 mm 0 m/s 752 mmHg 69%
    20:00 +23°C° 0 mm 1 m/s 753 mmHg 71%
    21:00 +23°C° 0 mm 1 m/s 753 mmHg 72%
    22:00 +22°C° 0 mm 1 m/s 754 mmHg 73%
    23:00 +22°C° 0 mm 1 m/s 754 mmHg 74%

    Demain, 19 Juillet, Vendredi

    Heure Température Précipitation Vent Pression Humidité
    00:00 +21°C° 0 mm 1 m/s 754 mmHg 74%
    01:00 +21°C° 0 mm 1 m/s 754 mmHg 74%
    02:00 +21°C° 0 mm 1 m/s 754 mmHg 75%
    03:00 +20°C° 0 mm 1 m/s 754 mmHg 75%
    04:00 +20°C° 0 mm 1 m/s 754 mmHg 75%
    05:00 +22°C° 0 mm 1 m/s 754 mmHg 71%
    06:00 +23°C° 0 mm 1 m/s 754 mmHg 66%
    07:00 +25°C° 0 mm 1 m/s 755 mmHg 62%
    08:00 +27°C° 0 mm 1 m/s 755 mmHg 56%
    09:00 +28°C° 0 mm 1 m/s 755 mmHg 51%
    10:00 +30°C° 0 mm 1 m/s 755 mmHg 45%
    11:00 +31°C° 0 mm 1 m/s 755 mmHg 43%
    12:00 +31°C° 0 mm 2 m/s 755 mmHg 42%
    13:00 +31°C° 0 mm 2 m/s 755 mmHg 40%
    14:00 +31°C° 0.1 mm 2 m/s 755 mmHg 43%
    15:00 +30°C° 0.1 mm 2 m/s 755 mmHg 46%
    16:00 +30°C° 0.1 mm 3 m/s 755 mmHg 50%
    17:00 +28°C° 0 mm 2 m/s 755 mmHg 57%
    18:00 +27°C° 0 mm 1 m/s 755 mmHg 64%
    19:00 +25°C° 0 mm 1 m/s 755 mmHg 71%
    20:00 +24°C° 0 mm 1 m/s 755 mmHg 73%
    21:00 +23°C° 0 mm 1 m/s 756 mmHg 74%
    22:00 +23°C° 0 mm 1 m/s 756 mmHg 76%
    23:00 +22°C° 0 mm 1 m/s 756 mmHg 75%

    Après-demain, 20 Juillet, Samedi

    Heure Température Précipitation Vent Pression Humidité
    00:00 +22°C° 0 mm 1 m/s 756 mmHg 74%
    01:00 +22°C° 0 mm 1 m/s 756 mmHg 74%
    02:00 +22°C° 0 mm 1 m/s 756 mmHg 73%
    03:00 +21°C° 0 mm 1 m/s 756 mmHg 73%
    04:00 +21°C° 0 mm 1 m/s 756 mmHg 73%
    05:00 +23°C° 0 mm 1 m/s 756 mmHg 69%
    06:00 +24°C° 0 mm 1 m/s 756 mmHg 65%
    07:00 +26°C° 0 mm 1 m/s 757 mmHg 61%
    08:00 +28°C° 0 mm 1 m/s 757 mmHg 55%
    09:00 +30°C° 0 mm 1 m/s 757 mmHg 50%
    10:00 +32°C° 0 mm 1 m/s 757 mmHg 45%
    11:00 +32°C° 0 mm 1 m/s 757 mmHg 43%
    12:00 +32°C° 0 mm 1 m/s 757 mmHg 41%
    13:00 +34°C° 0 mm 2 m/s 757 mmHg 39%
    14:00 +32°C° 0 mm 2 m/s 757 mmHg 42%
    15:00 +32°C° 0 mm 2 m/s 757 mmHg 44%
    16:00 +31°C° 0 mm 2 m/s 757 mmHg 47%
    17:00 +30°C° 0 mm 2 m/s 757 mmHg 53%
    18:00 +28°C° 0 mm 1 m/s 757 mmHg 60%
    19:00 +26°C° 0 mm 1 m/s 757 mmHg 67%
    20:00 +26°C° 0 mm 1 m/s 757 mmHg 68%
    21:00 +25°C° 0 mm 1 m/s 758 mmHg 69%
    22:00 +24°C° 0 mm 1 m/s 758 mmHg 70%
    23:00 +24°C° 0 mm 1 m/s 758 mmHg 71%

    21 Juillet, Dimanche

    Heure Température Précipitation Vent Pression Humidité
    00:00 +24°C° 0 mm 1 m/s 758 mmHg 71%
    01:00 +24°C° 0 mm 1 m/s 758 mmHg 71%
    02:00 +23°C° 0 mm 1 m/s 758 mmHg 71%
    03:00 +23°C° 0 mm 1 m/s 758 mmHg 71%
    04:00 +23°C° 0 mm 1 m/s 757 mmHg 72%
    05:00 +25°C° 0 mm 1 m/s 758 mmHg 68%
    06:00 +26°C° 0 mm 1 m/s 758 mmHg 64%
    07:00 +26°C° 0 mm 0 m/s 758 mmHg 60%
    08:00 +28°C° 0 mm 0 m/s 758 mmHg 54%
    09:00 +30°C° 0 mm 0 m/s 758 mmHg 49%
    10:00 +32°C° 0 mm 0 m/s 758 mmHg 43%
    11:00 +34°C° 0 mm 1 m/s 758 mmHg 41%
    12:00 +35°C° 0 mm 1 m/s 758 mmHg 40%
    13:00 +36°C° 0 mm 2 m/s 758 mmHg 38%
    14:00 +36°C° 0 mm 2 m/s 758 mmHg 39%
    15:00 +35°C° 0 mm 2 m/s 758 mmHg 41%
    16:00 +35°C° 0 mm 3 m/s 758 mmHg 43%
    17:00 +32°C° 0 mm 2 m/s 758 mmHg 49%
    18:00 +30°C° 0 mm 2 m/s 758 mmHg 55%
    19:00 +28°C° 0 mm 1 m/s 758 mmHg 61%
    20:00 +27°C° 0 mm 1 m/s 758 mmHg 62%
    21:00 +27°C° 0 mm 1 m/s 758 mmHg 63%
    22:00 +26°C° 0 mm 1 m/s 759 mmHg 64%
    23:00 +26°C° 0 mm 1 m/s 758 mmHg 65%

    22 Juillet, Lundi

    Heure Température Précipitation Vent Pression Humidité
    00:00 +26°C° 0 mm 1 m/s 758 mmHg 65%
    01:00 +25°C° 0 mm 1 m/s 758 mmHg 66%
    02:00 +25°C° 0 mm 1 m/s 758 mmHg 66%
    03:00 +25°C° 0 mm 2 m/s 758 mmHg 66%
    04:00 +25°C° 0 mm 2 m/s 758 mmHg 66%
    05:00 +26°C° 0 mm 1 m/s 758 mmHg 64%
    06:00 +28°C° 0 mm 1 m/s 758 mmHg 61%
    07:00 +29°C° 0 mm 1 m/s 758 mmHg 58%
    08:00 +31°C° 0 mm 1 m/s 758 mmHg 52%
    09:00 +33°C° 0 mm 1 m/s 759 mmHg 46%
    10:00 +35°C° 0 mm 1 m/s 759 mmHg 40%
    11:00 +36°C° 0 mm 1 m/s 759 mmHg 38%
    12:00 +37°C° 0 mm 2 m/s 758 mmHg 36%
    13:00 +38°C° 0 mm 2 m/s 758 mmHg 35%
    14:00 +37°C° 0 mm 2 m/s 758 mmHg 37%
    15:00 +36°C° 0 mm 2 m/s 758 mmHg 40%
    16:00 +36°C° 0 mm 2 m/s 758 mmHg 43%
    17:00 +34°C° 0 mm 2 m/s 758 mmHg 49%
    18:00 +31°C° 0 mm 2 m/s 758 mmHg 55%
    19:00 +30°C° 0 mm 1 m/s 757 mmHg 62%
    20:00 +29°C° 0 mm 2 m/s 758 mmHg 64%
    21:00 +28°C° 0 mm 2 m/s 758 mmHg 65%
    22:00 +27°C° 0 mm 2 m/s 758 mmHg 67%
    23:00 +26°C° 0 mm 2 m/s 758 mmHg 69%

    23 Juillet, Mardi

    Heure Température Précipitation Vent Pression Humidité
    00:00 +26°C° 0 mm 2 m/s 758 mmHg 70%
    01:00 +25°C° 0 mm 2 m/s 757 mmHg 71%
    02:00 +25°C° 0 mm 2 m/s 757 mmHg 73%
    03:00 +25°C° 0 mm 2 m/s 757 mmHg 74%
    04:00 +24°C° 0 mm 2 m/s 757 mmHg 76%
    05:00 +26°C° 0 mm 2 m/s 757 mmHg 72%
    06:00 +27°C° 0 mm 2 m/s 757 mmHg 67%
    07:00 +28°C° 0 mm 2 m/s 757 mmHg 63%
    08:00 +30°C° 0 mm 2 m/s 757 mmHg 56%
    09:00 +32°C° 0 mm 2 m/s 757 mmHg 48%
    10:00 +35°C° 0 mm 2 m/s 757 mmHg 40%
    11:00 +36°C° 0 mm 3 m/s 756 mmHg 38%
    12:00 +36°C° 0 mm 3 m/s 756 mmHg 37%
    13:00 +37°C° 0 mm 3 m/s 756 mmHg 35%
    14:00 +37°C° 0 mm 3 m/s 756 mmHg 37%
    15:00 +36°C° 0 mm 3 m/s 755 mmHg 38%
    16:00 +36°C° 0 mm 3 m/s 755 mmHg 40%
    17:00 +34°C° 0 mm 3 m/s 755 mmHg 45%
    18:00 +31°C° 0 mm 3 m/s 755 mmHg 51%
    19:00 +29°C° 0 mm 2 m/s 755 mmHg 56%
    20:00 +28°C° 0 mm 2 m/s 755 mmHg 59%
    21:00 +27°C° 0 mm 3 m/s 755 mmHg 61%
    22:00 +26°C° 0 mm 3 m/s 755 mmHg 64%
    23:00 +25°C° 0 mm 3 m/s 755 mmHg 67%
    Voir plus